Skip Page Navigation
NASA JPL Caltech
NASA Logo - Jet Propulsion Laboratory + View the NASA Portal
+ Near-Earth Object (NEO) Program
Search JPL
JPL Home Earth Solar System Stars & Galaxies Technology
JPL Solar System Dynamics
BODIES ORBITS EPHEMERIDES TOOLS PHYSICAL DATA DISCOVERY FAQ SITE MAP
JPL Small-Body Database Browser
Search: [ help ]  
C/2006 M4 (SWAN)
Classification: Hyperbolic Comet          SPK-ID: 1002407
Ephemeris | Orbit Diagram | Orbital Elements | Physical Parameters ]

[ hide orbit diagram ]
Orbit Diagram
Note: Make sure you have Java enabled on your browser to see the applet. This applet is provided as a 3D orbit visualization tool. The applet was implemented using 2-body methods, and hence should not be used for determining accurate long-term trajectories (over several years or decades) or planetary encounter circumstances. For accurate long-term ephemerides, please instead use our Horizons system.
Orbit Viewer

Additional Notes: the orbits shown in the applet are color coded. The planets are white lines, and the asteroid/comet is a blue line. The bright white line indicates the portion of the orbit that is above the ecliptic plane, and the darker portion is below the ecliptic plane. Likewise for the asteroid/comet orbit, the light blue indicates the portion above the ecliptic plane, and the dark blue the portion below the ecliptic plane.

Orbit Viewer applet originally written and kindly provided by Osamu Ajiki (AstroArts), and further modified by Ron Baalke (JPL).


Orbital Elements at Epoch 2454048.5 (2006-Nov-09.0) TDB
Reference: JPL 32 (heliocentric ecliptic J2000)
 Element Value Uncertainty (1-sigma)   Units 
e 1.000186600905341 1.2539e-06  
a -4196.164469849747 28.196 AU
q .7830080890339565 2.615e-07 AU
i 111.8232597954028 2.1605e-05 deg
node 148.7268269286735 2.2082e-05 deg
peri 62.59439571189083 4.1133e-05 deg
M .0001496494298534267 1.5083e-06 deg
tp 2454007.228548234705
(2006-Sep-28.72854823)
2.7618e-05 JED
period n/a
n/a
n/a
n/a
d
yr
n 3.625979301732882E-6 3.6547e-08 deg/d
Q n/a n/a AU
  Orbit Determination Parameters
   # obs. used (total)      1229  
   data-arc span      433 days (1.19 yr)  
   first obs. used      2006-07-12  
   last obs. used      2007-09-18  
   planetary ephem.      DE405  
   SB-pert. ephem.      SB405-CPV-2  
   fit RMS      .87815  
   data source      ORB  
   producer      Otto Matic  
   solution date      2011-Sep-14 21:20:09  

Additional Information
 Earth MOID = .0706742 AU 
[ show covariance matrix ]

Ephemeris | Orbit Diagram | Orbital Elements | Physical Parameters ]

Physical Parameter Table
Parameter Symbol Value Units Sigma Reference Notes
comet total magnitude M1 10.2 mag 1. 32 2 parameter fit from 237 observations, autocmod 2.5a
comet total magnitude slope K1 14.   n/a 32 autocmod 2.5a
Ephemeris | Orbit Diagram | Orbital Elements | Physical Parameters ]
ABOUT SSD CREDITS/AWARDS PRIVACY/COPYRIGHT GLOSSARY LINKS
FirstGov 2013-May-24 18:36 UT
(server date/time)  
NASA Home Page
Site Manager:   Donald K. Yeomans
Webmaster  Alan B. Chamberlin